This demonstration page uses our WeatherBlox Daily Observations layout. Learn more.

Hourly Observations for April 1, 2016

Temp ( °F °C ) Dew Point ( °F °C ) Humidity (%) Winds ( mph kmh ) Pressure ( in mb ) Visibility ( mi km ) Precip ( " mm )
12:15 am 00:15 Clear 32 0.2 26 -3.5 76 76 WNW 8 13 30.03 1017 10 16.0934 0 0
12:35 am 00:35 Clear 33 0.8 26 -3.5 73 73 W 7 11 30.03 1017 10 16.0934 0 0
12:55 am 00:55 Clear 33 0.6 26 -3.6 74 74 WNW 10 17 30.03 1017 10 16.0934 0 0
1:15 am 01:15 Clear 33 0.8 26 -3.5 73 73 WNW 12 19 30.03 1017 10 16.0934 0 0
1:35 am 01:35 Clear 32 0.2 26 -3.6 76 76 WNW 10 17 30.03 1017 10 16.0934 0 0
1:55 am 01:55 Clear 32 0 26 -3.5 78 78 WNW 10 17 30.06 1018 10 16.0934 0 0
2:15 am 02:15 Clear 32 -0.1 26 -3.5 78 78 NW 9 15 30.06 1018 10 16.0934 0 0
2:35 am 02:35 Clear 31 -0.6 25 -3.8 79 79 WNW 6 9 30.06 1018 10 16.0934 0 0
2:55 am 02:55 Clear 28 -2 23 -4.8 81 81 WNW 6 9 30.09 1019 10 16.0934 0 0
3:15 am 03:15 Clear 27 -2.7 23 -5.2 83 83 WNW 7 11 30.09 1019 10 16.0934 0 0
3:35 am 03:35 Clear 27 -2.6 23 -4.9 84 84 WNW 7 11 30.09 1019 10 16.0934 0 0
3:55 am 03:55 Clear 27 -2.7 24 -4.7 86 86 NW 7 11 30.09 1019 10 16.0934 0 0
4:15 am 04:15 Clear 31 -0.4 27 -2.7 85 85 NW 12 19 30.06 1018 10 16.0934 0 0
4:35 am 04:35 Clear 32 0 27 -2.6 83 83 NW 12 19 30.06 1018 10 16.0934 0 0
4:55 am 04:55 Clear 32 0.1 28 -2.4 83 83 NW 13 20 30.06 1018 10 16.0934 0 0
5:15 am 05:15 Clear 33 0.8 28 -2.1 81 81 NW 13 20 30.06 1018 10 16.0934 0 0
5:35 am 05:35 Clear 32 0 28 -2.5 83 83 NW 10 17 30.06 1018 10 16.0934 0 0
5:55 am 05:55 Clear 32 0 28 -2.5 83 83 WNW 10 17 30.09 1019 10 16.0934 0 0
6:15 am 06:15 Clear 32 0 28 -2.4 84 84 WNW 12 19 30.09 1019 10 16.0934 0 0
6:35 am 06:35 Clear 31 -0.8 27 -2.9 86 86 NW 9 15 30.12 1020 10 16.0934 0 0
6:55 am 06:55 Clear 30 -1.2 26 -3.1 87 87 NW 8 13 30.12 1020 10 16.0934 0 0
7:15 am 07:15 Clear 30 -1.2 27 -3 88 88 WNW 8 13 30.12 1020 10 16.0934 0 0
7:35 am 07:35 Partly Cloudy 30 -1.1 27 -3 87 87 WNW 7 11 30.15 1021 10 16.0934 0 0
7:55 am 07:55 Partly Cloudy 31 -0.6 27 -2.7 86 86 W 7 11 30.15 1021 10 16.0934 0 0
8:15 am 08:15 Mostly Cloudy 32 0 28 -2 87 87 NW 7 11 30.12 1020 10 16.0934 0 0
8:35 am 08:35 Mostly Cloudy 36 2.2 30 -1 80 80 NW 12 19 30.12 1020 10 16.0934 0 0
8:55 am 08:55 Partly Cloudy 37 2.7 30 -1.2 76 76 NW 10 17 30.12 1020 10 16.0934 0 0
9:15 am 09:15 Mostly Cloudy 39 3.8 30 -1.2 70 70 NW 18 30 30.12 1020 10 16.0934 0 0
9:35 am 09:35 Cloudy 39 4.1 24 -4.3 55 55 NW 18 30 30.12 1020 10 16.0934 0 0
9:55 am 09:55 Cloudy 39 4 21 -6.2 48 48 NW 22 35 30.12 1020 10 16.0934 0 0
10:15 am 10:15 Cloudy 40 4.3 20 -6.5 46 46 NW 17 28 30.12 1020 10 16.0934 0 0
10:35 am 10:35 Cloudy 39 4 21 -6 48 48 NW 20 31 30.12 1020 10 16.0934 0 0
10:55 am 10:55 Mostly Cloudy 40 4.6 20 -6.6 44 44 N 21 33 30.15 1021 10 16.0934 0 0
11:15 am 11:15 Mostly Cloudy 42 5.3 19 -7.2 40 40 NNW 24 39 30.15 1021 10 16.0934 0 0
11:35 am 11:35 Mostly Cloudy 41 5 19 -7.5 40 40 NNW 21 33 30.15 1021 10 16.0934 0 0
11:55 am 11:55 Mostly Cloudy 42 5.7 19 -7 40 40 NNW 21 33 30.15 1021 10 16.0934 0 0
12:15 pm 12:15 Mostly Cloudy 41 5.1 18 -7.6 40 40 NNW 21 33 30.15 1021 10 16.0934 0 0
12:35 pm 12:35 Mostly Cloudy 42 5.5 18 -7.9 38 38 NW 23 37 30.15 1021 10 16.0934 0 0
12:55 pm 12:55 Mostly Cloudy 43 6.1 16 -8.7 34 34 NW 21 33 30.15 1021 10 16.0934 0 0
1:15 pm 13:15 Cloudy 42 5.4 15 -9.6 33 33 NW 24 39 30.15 1021 10 16.0934 0 0
1:35 pm 13:35 Mostly Cloudy 43 6.2 15 -9.4 32 32 N 21 33 30.15 1021 10 16.0934 0 0
1:55 pm 13:55 Partly Cloudy 43 6.1 14 -10.1 31 31 NNW 22 35 30.15 1021 10 16.0934 0 0
2:15 pm 14:15 Partly Cloudy 43 6.1 14 -10.1 31 31 NW 17 28 30.15 1021 10 16.0934 0 0
2:35 pm 14:35 Partly Cloudy 44 6.8 14 -9.8 30 30 N 20 31 30.12 1020 10 16.0934 0 0
2:55 pm 14:55 Sunny 45 7.2 15 -9.3 30 30 NNW 22 35 30.12 1020 10 16.0934 0 0
3:15 pm 15:15 Partly Cloudy 44 6.9 16 -8.9 32 32 NNW 16 26 30.18 1022 10 16.0934 0 0
3:35 pm 15:35 Partly Cloudy 44 6.6 15 -9.2 32 32 NNW 18 30 30.15 1021 10 16.0934 0 0
3:55 pm 15:55 Partly Cloudy 45 7.1 15 -9.4 30 30 N 17 28 30.12 1020 10 16.0934 0 0
4:15 pm 16:15 Partly Cloudy 45 7 15 -9.5 30 30 NNW 21 33 30.12 1020 10 16.0934 0 0
4:35 pm 16:35 Sunny 44 6.8 14 -9.9 30 30 NNW 15 24 30.12 1020 10 16.0934 0 0
4:55 pm 16:55 Sunny 44 6.8 13 -10.4 28 28 NNW 14 22 30.12 1020 10 16.0934 0 0
5:15 pm 17:15 Sunny 45 7 13 -10.4 28 28 NW 15 24 30.12 1020 10 16.0934 0 0
5:35 pm 17:35 Sunny 45 7.1 13 -10.3 28 28 NNW 16 26 30.12 1020 10 16.0934 0 0
5:55 pm 17:55 Sunny 44 6.6 13 -10.6 28 28 NNW 15 24 30.15 1021 10 16.0934 0 0
6:15 pm 18:15 Sunny 44 6.7 13 -10.4 29 29 NW 13 20 30.15 1021 10 16.0934 0 0
6:35 pm 18:35 Sunny 44 6.7 13 -10.7 28 28 NW 12 19 30.15 1021 10 16.0934 0 0
6:55 pm 18:55 Sunny 46 8 21 -5.9 37 37 NNW 17 28 29.83 1010 10 16.0934 0 0
7:15 pm 19:15 Sunny 43 6.2 13 -10.5 29 29 NW 12 19 30.15 1021 10 16.0934 0 0
7:35 pm 19:35 Sunny 42 5.8 12 -11.2 29 29 NW 10 17 30.15 1021 10 16.0934 0 0
7:55 pm 19:55 Sunny 41 4.9 12 -11.1 31 31 NW 7 11 30.15 1021 10 16.0934 0 0
8:15 pm 20:15 Clear 38 3.2 11 -11.6 33 33 NW 5 7 30.18 1022 10 16.0934 0 0
8:35 pm 20:35 Clear 36 2.1 10 -12 35 35 NW 5 7 30.18 1022 10 16.0934 0 0
8:55 pm 20:55 Clear 35 1.5 11 -11.9 37 37 Calm 30.21 1023 10 16.0934 0 0
9:15 pm 21:15 Clear 34 0.9 10 -12 38 38 W 3 6 30.21 1023 10 16.0934 0 0
9:35 pm 21:35 Clear 34 0.9 11 -11.5 39 39 W 3 6 30.21 1023 10 16.0934 0 0
9:55 pm 21:55 Clear 32 0 12 -11.2 43 43 W 3 6 30.24 1024 10 16.0934 0 0
10:15 pm 22:15 Clear 33 0.6 13 -10.8 43 43 Calm 30.18 1022 10 16.0934 0 0
10:35 pm 22:35 Clear 31 -0.5 12 -11.2 45 45 Calm 30.21 1023 10 16.0934 0 0
10:55 pm 22:55 Clear 31 -0.5 13 -10.6 47 47 Calm 30.21 1023 10 16.0934 0 0
11:15 pm 23:15 Clear 32 -0.2 13 -10.5 46 46 Calm 30.21 1023 10 16.0934 0 0
11:35 pm 23:35 Clear 31 -0.3 14 -10.2 48 48 SW 5 7 30.21 1023 10 16.0934 0 0
11:55 pm 23:55 Clear 33 0.6 14 -10.2 45 45 SW 6 9 30.18 1022 10 16.0934 0 0

Powered by AerisWeather